| time (UTC) | temp F | wind direction | speed MPH | gust MPH | rain 1hr in | rain 24hr in | rain mn in | humidity % | barometer mb |
| 20260509024507 | 50 | 158 | 0.0 | 0.0 | 0.00 | 0.01 | 0.00 | 89 | 1004.0 |
| 20260509024007 | 50 | 151 | 0.0 | 0.0 | 0.00 | 0.01 | 0.00 | 89 | 1004.0 |
| 20260509023507 | 50 | 226 | 0.0 | 0.0 | 0.00 | 0.01 | 0.00 | 89 | 1004.0 |
| 20260509023008 | 51 | 155 | 0.0 | 0.0 | 0.00 | 0.01 | 0.00 | 89 | 1004.0 |
| 20260509022607 | 51 | 152 | 0.0 | 0.0 | 0.00 | 0.01 | 0.00 | 88 | 1004.0 |
| 20260509022008 | 51 | 152 | 0.0 | 0.0 | 0.00 | 0.01 | 0.00 | 88 | 1004.1 |
| 20260509021509 | 51 | 152 | 0.0 | 0.0 | 0.00 | 0.01 | 0.00 | 87 | 1004.0 |
| 20260509021009 | 51 | 113 | 0.0 | 0.0 | 0.00 | 0.01 | 0.00 | 87 | 1004.0 |
| 20260509020508 | 52 | 132 | 0.0 | 0.0 | 0.00 | 0.01 | 0.00 | 86 | 1004.0 |
| 20260509020008 | 52 | 145 | 0.0 | 4.0 | 0.00 | 0.01 | 0.00 | 86 | 1004.0 |
| 20260509015512 | 52 | 143 | 0.0 | 4.0 | 0.00 | 0.01 | 0.00 | 86 | 1004.1 |
| 20260509015008 | 52 | 209 | 0.0 | 1.0 | 0.00 | 0.01 | 0.00 | 85 | 1004.0 |
| 20260509014508 | 53 | 105 | 0.0 | 1.0 | 0.00 | 0.01 | 0.00 | 84 | 1004.1 |
| 20260509014007 | 53 | 146 | 0.0 | 1.0 | 0.00 | 0.01 | 0.00 | 84 | 1004.0 |
| 20260509013507 | 53 | 84 | 0.0 | 1.0 | 0.00 | 0.01 | 0.00 | 83 | 1004.0 |
| 20260509013007 | 53 | 113 | 0.0 | 0.0 | 0.00 | 0.01 | 0.00 | 83 | 1003.9 |
| 20260509012607 | 53 | 217 | 0.0 | 3.0 | 0.00 | 0.01 | 0.00 | 83 | 1003.7 |
| 20260509012005 | 53 | 50 | 0.0 | 3.0 | 0.00 | 0.01 | 0.00 | 83 | 1003.7 |
| 20260509011505 | 54 | 143 | 0.0 | 0.0 | 0.00 | 0.01 | 0.00 | 82 | 1003.6 |
| 20260509011004 | 54 | 135 | 0.0 | 0.0 | 0.00 | 0.01 | 0.00 | 81 | 1003.6 |
| 20260509010504 | 54 | 135 | 0.0 | 0.0 | 0.00 | 0.01 | 0.00 | 81 | 1003.5 |
| 20260509010010 | 54 | 122 | 0.0 | 0.0 | 0.00 | 0.01 | 0.00 | 80 | 1003.5 |
| 20260509005504 | 54 | 195 | 0.0 | 0.0 | 0.00 | 0.01 | 0.00 | 80 | 1003.5 |
| 20260509005004 | 55 | 207 | 0.0 | 0.0 | 0.00 | 0.01 | 0.00 | 79 | 1003.5 |
| 20260509004505 | 55 | 212 | 0.0 | 1.0 | 0.00 | 0.01 | 0.00 | 78 | 1003.5 |
| 20260509004004 | 55 | 202 | 0.0 | 0.0 | 0.00 | 0.01 | 0.00 | 77 | 1003.4 |
| 20260509003504 | 56 | 206 | 0.0 | 1.0 | 0.00 | 0.01 | 0.00 | 76 | 1003.3 |
| 20260509003007 | 56 | 225 | 0.0 | 1.0 | 0.00 | 0.01 | 0.00 | 75 | 1003.3 |
| 20260509002604 | 57 | 171 | 0.0 | 0.0 | 0.00 | 0.01 | 0.00 | 73 | 1003.2 |
| 20260509002108 | 57 | 171 | 0.0 | 0.0 | 0.00 | 0.01 | 0.00 | 73 | 1003.2 |
| 20260509001507 | 57 | 206 | 0.0 | 2.0 | 0.00 | 0.01 | 0.00 | 72 | 1003.3 |
| 20260509001006 | 57 | 257 | 0.0 | 0.0 | 0.00 | 0.01 | 0.00 | 70 | 1003.2 |
| 20260509000506 | 58 | 213 | 0.0 | 0.0 | 0.00 | 0.01 | 0.00 | 69 | 1003.2 |
| 20260509000006 | 58 | 153 | 0.0 | 0.0 | 0.00 | 0.01 | 0.00 | 69 | 1003.2 |
| 20260508235506 | 58 | 141 | 0.0 | 0.0 | 0.00 | 0.01 | 0.00 | 68 | 1003.2 |
| 20260508235007 | 58 | 220 | 0.0 | 0.0 | 0.00 | 0.01 | 0.00 | 68 | 1003.3 |
| 20260508234507 | 58 | 41 | 0.0 | 0.0 | 0.00 | 0.01 | 0.00 | 66 | 1003.2 |
| 20260508234006 | 59 | 167 | 0.0 | 0.0 | 0.00 | 0.01 | 0.00 | 65 | 1003.3 |
| 20260508233510 | 59 | 158 | 0.0 | 1.0 | 0.00 | 0.01 | 0.00 | 64 | 1003.2 |
| 20260508233006 | 59 | 240 | 0.0 | 1.0 | 0.00 | 0.01 | 0.00 | 63 | 1003.3 |
| 20260508232607 | 60 | 141 | 0.0 | 2.0 | 0.00 | 0.01 | 0.00 | 59 | 1003.3 |
| 20260508232100 | 60 | 282 | 0.0 | 2.0 | 0.00 | 0.01 | 0.00 | 59 | 1003.3 |
| 20260508231600 | 60 | 229 | 0.0 | 2.0 | 0.00 | 0.01 | 0.00 | 56 | 1003.3 |
| 20260508231100 | 60 | 4 | 0.0 | 1.0 | 0.00 | 0.01 | 0.00 | 55 | 1003.3 |
| 20260508231004 | 60 | 139 | 0.0 | 1.0 | 0.00 | 0.01 | 0.00 | 55 | 1003.2 |
| 20260508230559 | 60 | 91 | 0.0 | 3.0 | 0.00 | 0.01 | 0.00 | 55 | 1003.3 |
| 20260508230104 | 60 | 150 | 0.0 | 3.0 | 0.00 | 0.01 | 0.00 | 56 | 1003.2 |
| 20260508225559 | 60 | 219 | 0.0 | 2.0 | 0.00 | 0.01 | 0.00 | 54 | 1003.2 |
| 20260508225059 | 61 | 172 | 0.0 | 0.0 | 0.00 | 0.01 | 0.00 | 54 | 1003.2 |
| 20260508224558 | 61 | 319 | 0.0 | 0.0 | 0.00 | 0.01 | 0.00 | 52 | 1003.3 |
| 20260508224057 | 61 | 240 | 0.0 | 5.0 | 0.00 | 0.01 | 0.00 | 51 | 1003.2 |
| 20260508223557 | 61 | 215 | 0.0 | 5.0 | 0.00 | 0.01 | 0.00 | 48 | 1003.3 |
| 20260508223101 | 62 | 176 | 0.0 | 1.0 | 0.00 | 0.01 | 0.00 | 48 | 1003.3 |
| 20260508222557 | 63 | 191 | 0.0 | 0.0 | 0.00 | 0.01 | 0.00 | 46 | 1003.3 |
| 20260508222058 | 63 | 27 | 0.0 | 0.0 | 0.00 | 0.01 | 0.00 | 45 | 1003.4 |
| 20260508221558 | 63 | 261 | 0.0 | 4.0 | 0.00 | 0.01 | 0.00 | 46 | 1003.4 |
| 20260508221101 | 63 | 79 | 0.0 | 4.0 | 0.00 | 0.01 | 0.00 | 47 | 1003.4 |
| 20260508220556 | 63 | 245 | 0.0 | 2.0 | 0.00 | 0.01 | 0.00 | 41 | 1003.5 |
| 20260508215555 | 63 | 215 | 0.0 | 1.0 | 0.00 | 0.01 | 0.00 | 42 | 1003.6 |
| 20260508215055 | 63 | 208 | 0.0 | 2.0 | 0.00 | 0.01 | 0.00 | 43 | 1003.5 |
| 20260508214601 | 63 | 265 | 0.0 | 4.0 | 0.00 | 0.01 | 0.00 | 42 | 1003.5 |
| 20260508214053 | 63 | 256 | 0.0 | 4.0 | 0.00 | 0.01 | 0.00 | 40 | 1003.5 |
| 20260508213552 | 63 | 294 | 0.0 | 0.0 | 0.00 | 0.01 | 0.00 | 39 | 1003.5 |
| 20260508213052 | 63 | 240 | 0.0 | 4.0 | 0.00 | 0.01 | 0.00 | 39 | 1003.6 |
| 20260508212552 | 63 | 190 | 0.0 | 2.0 | 0.00 | 0.01 | 0.00 | 39 | 1003.7 |
| 20260508212051 | 63 | 116 | 0.0 | 2.0 | 0.00 | 0.01 | 0.00 | 39 | 1003.7 |
| 20260508211549 | 63 | 318 | 0.0 | 2.0 | 0.00 | 0.01 | 0.00 | 40 | 1003.7 |
| 20260508211048 | 63 | 281 | 0.0 | 1.0 | 0.00 | 0.01 | 0.00 | 40 | 1003.6 |
| 20260508210548 | 63 | 101 | 0.0 | 2.0 | 0.00 | 0.01 | 0.00 | 41 | 1003.6 |
| 20260508210048 | 62 | 262 | 0.0 | 4.0 | 0.00 | 0.01 | 0.00 | 41 | 1003.8 |
| 20260508205547 | 62 | 301 | 0.0 | 4.0 | 0.00 | 0.01 | 0.00 | 38 | 1003.8 |
| 20260508205045 | 62 | 119 | 0.0 | 1.0 | 0.00 | 0.01 | 0.00 | 42 | 1003.8 |
| 20260508204546 | 61 | 232 | 0.0 | 5.0 | 0.00 | 0.01 | 0.00 | 41 | 1003.9 |
| 20260508204046 | 61 | 273 | 0.0 | 5.0 | 0.00 | 0.01 | 0.00 | 40 | 1003.9 |
| 20260508203548 | 61 | 267 | 0.0 | 1.0 | 0.00 | 0.01 | 0.00 | 40 | 1004.1 |
| 20260508203047 | 60 | 265 | 0.0 | 0.0 | 0.00 | 0.01 | 0.00 | 39 | 1004.1 |
| 20260508202544 | 61 | 266 | 0.0 | 4.0 | 0.00 | 0.01 | 0.00 | 39 | 1004.3 |
| 20260508202043 | 61 | 250 | 0.0 | 4.0 | 0.00 | 0.01 | 0.00 | 38 | 1004.4 |
| 20260508201543 | 62 | 257 | 0.0 | 5.0 | 0.00 | 0.01 | 0.00 | 39 | 1004.4 |
| 20260508201045 | 63 | 210 | 0.0 | 2.0 | 0.00 | 0.01 | 0.00 | 38 | 1004.4 |
| 20260508200543 | 62 | 269 | 0.0 | 4.0 | 0.00 | 0.01 | 0.00 | 38 | 1004.5 |
| 20260508200040 | 63 | 324 | 0.0 | 4.0 | 0.00 | 0.01 | 0.00 | 36 | 1004.7 |
| 20260508195538 | 63 | 94 | 0.0 | 1.0 | 0.00 | 0.01 | 0.00 | 38 | 1004.7 |
| 20260508195037 | 63 | 208 | 0.0 | 2.0 | 0.00 | 0.01 | 0.00 | 41 | 1004.7 |
| 20260508194536 | 63 | 201 | 0.0 | 2.0 | 0.00 | 0.01 | 0.00 | 42 | 1004.8 |
| 20260508194035 | 62 | 251 | 0.0 | 3.0 | 0.00 | 0.01 | 0.00 | 40 | 1004.8 |
| 20260508193535 | 62 | 188 | 0.0 | 3.0 | 0.00 | 0.01 | 0.00 | 41 | 1004.8 |
| 20260508193039 | 61 | 224 | 0.0 | 5.0 | 0.00 | 0.01 | 0.00 | 44 | 1004.9 |
| 20260508192533 | 63 | 251 | 0.0 | 4.0 | 0.00 | 0.01 | 0.00 | 38 | 1005.1 |
| 20260508192035 | 63 | 245 | 0.0 | 4.0 | 0.00 | 0.01 | 0.00 | 38 | 1005.1 |
| 20260508191536 | 63 | 169 | 0.0 | 4.0 | 0.00 | 0.01 | 0.00 | 42 | 1005.0 |
| 20260508191033 | 62 | 227 | 0.0 | 1.0 | 0.00 | 0.01 | 0.00 | 38 | 1005.2 |
| 20260508190532 | 61 | 221 | 0.0 | 0.0 | 0.00 | 0.01 | 0.00 | 44 | 1005.3 |
| 20260508190032 | 59 | 237 | 0.0 | 0.0 | 0.00 | 0.01 | 0.00 | 38 | 1005.5 |
| 20260508185631 | 60 | 232 | 0.0 | 1.0 | 0.00 | 0.01 | 0.00 | 36 | 1005.5 |
| 20260508185031 | 61 | 274 | 0.0 | 1.0 | 0.00 | 0.01 | 0.00 | 35 | 1005.6 |
| 20260508184532 | 61 | 278 | 0.0 | 1.0 | 0.00 | 0.01 | 0.00 | 35 | 1005.6 |
| 20260508184029 | 61 | 324 | 0.0 | 3.0 | 0.00 | 0.01 | 0.00 | 37 | 1005.6 |
| 20260508183531 | 61 | 284 | 0.0 | 4.0 | 0.00 | 0.01 | 0.00 | 35 | 1005.7 |
| 20260508183028 | 61 | 229 | 0.0 | 4.0 | 0.00 | 0.01 | 0.00 | 36 | 1005.8 |
| 20260508182529 | 60 | 230 | 0.0 | 4.0 | 0.00 | 0.01 | 0.00 | 37 | 1005.8 |
| 20260508182027 | 60 | 128 | 0.0 | 4.0 | 0.00 | 0.01 | 0.00 | 40 | 1005.8 |
| 20260508181525 | 60 | 26 | 0.0 | 2.0 | 0.00 | 0.01 | 0.00 | 40 | 1005.9 |
| 20260508181023 | 60 | 41 | 0.0 | 5.0 | 0.00 | 0.01 | 0.00 | 36 | 1006.1 |
| 20260508180523 | 60 | 259 | 0.0 | 5.0 | 0.00 | 0.01 | 0.00 | 35 | 1006.2 |
| 20260508180025 | 60 | 257 | 0.0 | 5.0 | 0.00 | 0.01 | 0.00 | 37 | 1006.2 |
| 20260508175522 | 60 | 239 | 0.0 | 4.0 | 0.00 | 0.01 | 0.00 | 35 | 1006.1 |
| 20260508175021 | 59 | 316 | 0.0 | 4.0 | 0.00 | 0.01 | 0.00 | 34 | 1006.3 |
| 20260508174520 | 59 | 271 | 0.0 | 3.0 | 0.00 | 0.01 | 0.00 | 34 | 1006.4 |
| 20260508174019 | 59 | 236 | 0.0 | 6.0 | 0.00 | 0.01 | 0.00 | 37 | 1006.5 |
| 20260508173519 | 60 | 235 | 0.0 | 4.0 | 0.00 | 0.01 | 0.00 | 36 | 1006.6 |
| 20260508173017 | 59 | 243 | 0.0 | 4.0 | 0.00 | 0.01 | 0.00 | 35 | 1006.6 |
| 20260508172516 | 59 | 260 | 0.0 | 1.0 | 0.00 | 0.01 | 0.00 | 38 | 1006.7 |
| 20260508172027 | 59 | 73 | 0.0 | 1.0 | 0.00 | 0.01 | 0.00 | 34 | 1006.7 |
| 20260508171519 | 59 | 248 | 0.0 | 9.0 | 0.00 | 0.01 | 0.00 | 37 | 1006.9 |
| 20260508171019 | 58 | 288 | 0.0 | 9.0 | 0.00 | 0.01 | 0.00 | 35 | 1007.0 |
| 20260508170518 | 58 | 268 | 0.0 | 0.0 | 0.00 | 0.01 | 0.00 | 34 | 1007.0 |
| 20260508170019 | 59 | 306 | 0.0 | 1.0 | 0.00 | 0.01 | 0.00 | 38 | 1007.1 |
| 20260508165517 | 59 | 226 | 0.0 | 1.0 | 0.00 | 0.01 | 0.00 | 37 | 1007.2 |
| 20260508165016 | 58 | 292 | 0.0 | 5.0 | 0.00 | 0.01 | 0.00 | 39 | 1007.2 |
| 20260508164515 | 58 | 221 | 0.0 | 5.0 | 0.00 | 0.01 | 0.00 | 36 | 1007.3 |
| 20260508164015 | 58 | 273 | 0.0 | 2.0 | 0.00 | 0.01 | 0.00 | 37 | 1007.3 |
| 20260508163513 | 58 | 316 | 0.0 | 2.0 | 0.00 | 0.01 | 0.00 | 37 | 1007.3 |
| 20260508163013 | 58 | 243 | 0.0 | 1.0 | 0.00 | 0.01 | 0.00 | 38 | 1007.4 |
| 20260508162512 | 57 | 233 | 0.0 | 1.0 | 0.00 | 0.01 | 0.00 | 39 | 1007.4 |
| 20260508162008 | 57 | 158 | 0.0 | 1.0 | 0.00 | 0.01 | 0.00 | 39 | 1007.4 |
| 20260508161507 | 57 | 321 | 0.0 | 1.0 | 0.00 | 0.01 | 0.00 | 40 | 1007.5 |
| 20260508161006 | 57 | 86 | 0.0 | 0.0 | 0.00 | 0.01 | 0.00 | 40 | 1007.5 |
| 20260508160505 | 56 | 226 | 0.0 | 0.0 | 0.00 | 0.01 | 0.00 | 43 | 1007.5 |
| 20260508160012 | 56 | 248 | 0.0 | 0.0 | 0.00 | 0.01 | 0.00 | 39 | 1007.6 |
| 20260508155503 | 56 | 47 | 0.0 | 0.0 | 0.00 | 0.01 | 0.00 | 40 | 1007.7 |
| 20260508155002 | 56 | 82 | 0.0 | 1.0 | 0.00 | 0.01 | 0.00 | 38 | 1007.8 |
| 20260508154503 | 56 | 247 | 0.0 | 2.0 | 0.00 | 0.01 | 0.00 | 39 | 1007.8 |
| 20260508154101 | 55 | 304 | 0.0 | 1.0 | 0.00 | 0.01 | 0.00 | 43 | 1007.7 |
| 20260508153600 | 55 | 275 | 0.0 | 1.0 | 0.00 | 0.01 | 0.00 | 44 | 1007.7 |
| 20260508153100 | 55 | 254 | 0.0 | 1.0 | 0.00 | 0.01 | 0.00 | 42 | 1007.8 |
| 20260508152600 | 55 | 18 | 0.0 | 1.0 | 0.00 | 0.01 | 0.00 | 46 | 1007.9 |
| 20260508151557 | 54 | 300 | 0.0 | 1.0 | 0.00 | 0.01 | 0.00 | 46 | 1007.9 |
| 20260508151054 | 54 | 254 | 0.0 | 0.0 | 0.00 | 0.01 | 0.00 | 47 | 1007.9 |
| 20260508150553 | 53 | 224 | 0.0 | 0.0 | 0.00 | 0.01 | 0.00 | 48 | 1007.9 |
| 20260508150054 | 53 | 170 | 0.0 | 1.0 | 0.00 | 0.01 | 0.00 | 45 | 1008.0 |
| 20260508145553 | 53 | 252 | 0.0 | 0.0 | 0.00 | 0.01 | 0.00 | 49 | 1008.0 |
| 20260508145051 | 53 | 249 | 0.0 | 1.0 | 0.00 | 0.01 | 0.00 | 51 | 1008.1 |
| 20260508144551 | 53 | 233 | 0.0 | 2.0 | 0.00 | 0.01 | 0.00 | 51 | 1008.2 |
| 20260508144054 | 53 | 276 | 0.0 | 2.0 | 0.00 | 0.01 | 0.00 | 51 | 1008.3 |
| 20260508143551 | 53 | 282 | 0.0 | 0.0 | 0.00 | 0.01 | 0.00 | 53 | 1008.3 |
| 20260508143100 | 53 | 304 | 0.0 | 0.0 | 0.00 | 0.01 | 0.00 | 55 | 1008.3 |
| 20260508142548 | 52 | 217 | 0.0 | 0.0 | 0.00 | 0.01 | 0.00 | 59 | 1008.3 |
| 20260508141555 | 52 | 205 | 0.0 | 0.0 | 0.00 | 0.01 | 0.00 | 56 | 1008.3 |
| 20260508141048 | 51 | 231 | 0.0 | 0.0 | 0.00 | 0.01 | 0.00 | 59 | 1008.4 |
| 20260508140546 | 51 | 276 | 0.0 | 0.0 | 0.00 | 0.01 | 0.00 | 61 | 1008.4 |
| 20260508140049 | 51 | 232 | 0.0 | 1.0 | 0.00 | 0.01 | 0.00 | 62 | 1008.4 |
| 20260508135549 | 50 | 274 | 0.0 | 1.0 | 0.00 | 0.01 | 0.00 | 63 | 1008.4 |
| 20260508135044 | 50 | 248 | 0.0 | 0.0 | 0.00 | 0.01 | 0.00 | 63 | 1008.4 |
| 20260508134543 | 50 | 297 | 0.0 | 0.0 | 0.00 | 0.01 | 0.00 | 63 | 1008.4 |
| 20260508134043 | 50 | 259 | 0.0 | 0.0 | 0.00 | 0.01 | 0.00 | 64 | 1008.5 |
| 20260508133541 | 50 | 275 | 0.0 | 0.0 | 0.00 | 0.01 | 0.00 | 67 | 1008.5 |
| 20260508133052 | 49 | 297 | 0.0 | 0.0 | 0.00 | 0.01 | 0.00 | 70 | 1008.5 |
| 20260508132538 | 48 | 224 | 0.0 | 0.0 | 0.00 | 0.01 | 0.00 | 71 | 1008.5 |
| 20260508131537 | 47 | 239 | 0.0 | 0.0 | 0.00 | 0.01 | 0.00 | 73 | 1008.6 |
| 20260508131036 | 47 | 286 | 0.0 | 1.0 | 0.00 | 0.01 | 0.00 | 74 | 1008.6 |
| 20260508130534 | 46 | 283 | 0.0 | 1.0 | 0.00 | 0.01 | 0.00 | 79 | 1008.5 |
| 20260508130033 | 46 | 231 | 0.0 | 0.0 | 0.00 | 0.01 | 0.00 | 80 | 1008.6 |
| 20260508125534 | 45 | 254 | 0.0 | 0.0 | 0.00 | 0.01 | 0.00 | 81 | 1008.4 |
| 20260508125031 | 45 | 285 | 0.0 | 0.0 | 0.00 | 0.01 | 0.00 | 83 | 1008.4 |
| 20260508124529 | 45 | 250 | 0.0 | 0.0 | 0.00 | 0.01 | 0.00 | 87 | 1008.4 |
| 20260508124028 | 44 | 248 | 0.0 | 0.0 | 0.00 | 0.01 | 0.00 | 90 | 1008.3 |
| 20260508123526 | 43 | 248 | 0.0 | 0.0 | 0.00 | 0.01 | 0.00 | 92 | 1008.3 |
| 20260508123025 | 43 | 259 | 0.0 | 0.0 | 0.00 | 0.01 | 0.00 | 94 | 1008.2 |
| 20260508122524 | 41 | 259 | 0.0 | 0.0 | 0.00 | 0.01 | 0.00 | 97 | 1008.2 |
| 20260508121549 | 41 | 260 | 0.0 | 0.0 | 0.00 | 0.01 | 0.00 | 97 | 1008.1 |
| 20260508121023 | 40 | 260 | 0.0 | 0.0 | 0.00 | 0.01 | 0.00 | 97 | 1008.1 |
| 20260508120522 | 40 | 260 | 0.0 | 0.0 | 0.00 | 0.01 | 0.00 | 97 | 1008.0 |
| 20260508120022 | 39 | 260 | 0.0 | 0.0 | 0.00 | 0.01 | 0.00 | 97 | 1008.0 |
| 20260508115521 | 39 | 260 | 0.0 | 0.0 | 0.00 | 0.01 | 0.00 | 97 | 1008.0 |
| 20260508115019 | 39 | 260 | 0.0 | 0.0 | 0.00 | 0.01 | 0.00 | 97 | 1007.9 |
| 20260508114518 | 38 | 260 | 0.0 | 0.0 | 0.00 | 0.01 | 0.00 | 97 | 1007.9 |
| 20260508114017 | 37 | 260 | 0.0 | 0.0 | 0.00 | 0.01 | 0.00 | 97 | 1007.9 |
| 20260508113515 | 37 | 260 | 0.0 | 0.0 | 0.00 | 0.01 | 0.00 | 97 | 1007.9 |
| 20260508113013 | 36 | 260 | 0.0 | 0.0 | 0.00 | 0.01 | 0.00 | 97 | 1007.9 |
| 20260508112512 | 36 | 260 | 0.0 | 0.0 | 0.00 | 0.01 | 0.00 | 97 | 1007.9 |
| 20260508111509 | 35 | 260 | 0.0 | 0.0 | 0.00 | 0.01 | 0.00 | 97 | 1007.8 |
| 20260508111008 | 34 | 260 | 0.0 | 0.0 | 0.00 | 0.01 | 0.00 | 97 | 1007.8 |
| 20260508110507 | 34 | 260 | 0.0 | 0.0 | 0.00 | 0.01 | 0.00 | 97 | 1007.8 |
| 20260508110007 | 34 | 260 | 0.0 | 0.0 | 0.00 | 0.01 | 0.00 | 97 | 1007.8 |
| 20260508105509 | 34 | 260 | 0.0 | 0.0 | 0.00 | 0.01 | 0.00 | 97 | 1007.8 |
| 20260508105006 | 34 | 260 | 0.0 | 0.0 | 0.00 | 0.01 | 0.00 | 97 | 1007.8 |
| 20260508104505 | 34 | 260 | 0.0 | 0.0 | 0.00 | 0.01 | 0.00 | 97 | 1007.8 |
| 20260508104004 | 34 | 260 | 0.0 | 0.0 | 0.00 | 0.01 | 0.01 | 97 | 1007.7 |
| 20260508103504 | 34 | 260 | 0.0 | 0.0 | 0.00 | 0.01 | 0.01 | 97 | 1007.8 |
| 20260508103013 | 34 | 260 | 0.0 | 0.0 | 0.00 | 0.01 | 0.01 | 96 | 1007.8 |
| 20260508102503 | 35 | 260 | 0.0 | 0.0 | 0.00 | 0.01 | 0.01 | 96 | 1007.7 |
| 20260508101503 | 35 | 260 | 0.0 | 0.0 | 0.00 | 0.01 | 0.01 | 96 | 1007.8 |
| 20260508101006 | 35 | 260 | 0.0 | 0.0 | 0.00 | 0.01 | 0.01 | 96 | 1007.9 |
| 20260508100502 | 35 | 260 | 0.0 | 0.0 | 0.00 | 0.01 | 0.01 | 96 | 1007.9 |
| 20260508100002 | 35 | 260 | 0.0 | 0.0 | 0.00 | 0.01 | 0.01 | 96 | 1007.9 |
| 20260508095502 | 35 | 260 | 0.0 | 0.0 | 0.00 | 0.01 | 0.01 | 96 | 1007.9 |
| 20260508095001 | 35 | 260 | 0.0 | 0.0 | 0.00 | 0.01 | 0.01 | 96 | 1007.9 |
| 20260508094502 | 36 | 260 | 0.0 | 0.0 | 0.00 | 0.01 | 0.01 | 96 | 1007.9 |
| 20260508094006 | 36 | 260 | 0.0 | 0.0 | 0.00 | 0.01 | 0.01 | 96 | 1007.9 |
| 20260508093501 | 36 | 260 | 0.0 | 0.0 | 0.00 | 0.01 | 0.01 | 96 | 1008.0 |
| 20260508093000 | 36 | 260 | 0.0 | 0.0 | 0.00 | 0.01 | 0.01 | 96 | 1007.9 |
| 20260508092501 | 36 | 260 | 0.0 | 0.0 | 0.00 | 0.01 | 0.01 | 96 | 1008.0 |
| 20260508091510 | 37 | 260 | 0.0 | 0.0 | 0.01 | 0.01 | 0.01 | 95 | 1007.9 |
| 20260508091004 | 37 | 260 | 0.0 | 0.0 | 0.01 | 0.01 | 0.01 | 95 | 1008.0 |
| 20260508090504 | 37 | 260 | 0.0 | 0.0 | 0.01 | 0.01 | 0.01 | 95 | 1008.0 |
| 20260508090005 | 38 | 260 | 0.0 | 0.0 | 0.01 | 0.01 | 0.01 | 95 | 1007.9 |
| 20260508085502 | 38 | 260 | 0.0 | 0.0 | 0.01 | 0.01 | 0.01 | 95 | 1007.9 |
| 20260508085003 | 38 | 260 | 0.0 | 0.0 | 0.01 | 0.01 | 0.01 | 95 | 1008.0 |
| 20260508084502 | 39 | 260 | 0.0 | 0.0 | 0.01 | 0.01 | 0.01 | 95 | 1008.0 |
| 20260508084003 | 39 | 260 | 0.0 | 0.0 | 0.01 | 0.01 | 0.01 | 95 | 1007.9 |
| 20260508083502 | 39 | 260 | 0.0 | 0.0 | 0.01 | 0.01 | 0.01 | 96 | 1007.9 |
| 20260508083006 | 39 | 260 | 0.0 | 0.0 | 0.01 | 0.01 | 0.01 | 96 | 1007.9 |
| 20260508082502 | 39 | 122 | 0.0 | 0.0 | 0.01 | 0.01 | 0.01 | 96 | 1007.9 |
| 20260508081604 | 39 | 213 | 0.0 | 0.0 | 0.01 | 0.01 | 0.01 | 96 | 1008.1 |
| 20260508081059 | 39 | 223 | 0.0 | 0.0 | 0.00 | 0.00 | 0.00 | 96 | 1008.2 |
| 20260508080559 | 39 | 223 | 0.0 | 0.0 | 0.00 | 0.00 | 0.00 | 96 | 1008.0 |
| 20260508075559 | 39 | 223 | 0.0 | 0.0 | 0.00 | 0.00 | 0.00 | 95 | 1007.8 |
| 20260508075058 | 39 | 223 | 0.0 | 0.0 | 0.00 | 0.00 | 0.00 | 95 | 1007.8 |
| 20260508074558 | 39 | 223 | 0.0 | 0.0 | 0.00 | 0.00 | 0.00 | 95 | 1007.8 |
| 20260508074058 | 39 | 223 | 0.0 | 0.0 | 0.00 | 0.00 | 0.00 | 95 | 1007.8 |
| 20260508073558 | 39 | 223 | 0.0 | 0.0 | 0.00 | 0.00 | 0.00 | 95 | 1007.9 |
| 20260508073100 | 39 | 223 | 0.0 | 0.0 | 0.00 | 0.00 | 0.00 | 95 | 1008.0 |
| 20260508072557 | 39 | 223 | 0.0 | 0.0 | 0.00 | 0.00 | 0.00 | 95 | 1008.0 |
| 20260508071558 | 40 | 223 | 0.0 | 0.0 | 0.00 | 0.00 | 0.00 | 95 | 1008.0 |
| 20260508071058 | 40 | 223 | 0.0 | 0.0 | 0.00 | 0.00 | 0.00 | 95 | 1007.8 |
| 20260508070557 | 40 | 223 | 0.0 | 0.0 | 0.00 | 0.00 | 0.00 | 94 | 1007.9 |
| 20260508070059 | 40 | 223 | 0.0 | 0.0 | 0.00 | 0.00 | 0.00 | 94 | 1008.0 |
| 20260508065556 | 40 | 223 | 0.0 | 0.0 | 0.00 | 0.00 | 0.00 | 94 | 1008.3 |
| 20260508065057 | 40 | 223 | 0.0 | 0.0 | 0.00 | 0.00 | 0.00 | 94 | 1008.4 |
| 20260508064610 | 40 | 223 | 0.0 | 0.0 | 0.00 | 0.00 | 0.00 | 93 | 1008.3 |
| 20260508064057 | 40 | 188 | 0.0 | 0.0 | 0.00 | 0.01 | 0.00 | 93 | 1008.4 |
| 20260508063557 | 40 | 95 | 0.0 | 0.0 | 0.00 | 0.01 | 0.00 | 93 | 1008.4 |
| 20260508063057 | 40 | 95 | 0.0 | 0.0 | 0.00 | 0.01 | 0.00 | 92 | 1008.5 |
| 20260508062556 | 40 | 95 | 0.0 | 0.0 | 0.00 | 0.01 | 0.00 | 92 | 1008.5 |
| 20260508061502 | 40 | 95 | 0.0 | 0.0 | 0.00 | 0.01 | 0.00 | 92 | 1008.4 |
| 20260508061000 | 40 | 95 | 0.0 | 0.0 | 0.00 | 0.01 | 0.00 | 92 | 1008.5 |
| 20260508060502 | 39 | 95 | 0.0 | 0.0 | 0.00 | 0.01 | 0.00 | 92 | 1008.6 |
| 20260508060115 | 39 | 95 | 0.0 | 0.0 | 0.00 | 0.01 | 0.00 | 92 | 1008.6 |
| 20260508060001 | 39 | 95 | 0.0 | 0.0 | 0.00 | 0.01 | 0.00 | 92 | 1008.6 |
| 20260508055600 | 39 | 95 | 0.0 | 0.0 | 0.00 | 0.01 | 0.00 | 92 | 1008.6 |
| 20260508055501 | 39 | 95 | 0.0 | 0.0 | 0.00 | 0.01 | 0.00 | 92 | 1008.7 |
| 20260508055100 | 39 | 95 | 0.0 | 0.0 | 0.00 | 0.01 | 0.00 | 92 | 1008.7 |
| 20260508054605 | 39 | 95 | 0.0 | 0.0 | 0.00 | 0.01 | 0.00 | 92 | 1008.6 |
| 20260508054101 | 39 | 95 | 0.0 | 0.0 | 0.00 | 0.01 | 0.00 | 92 | 1008.7 |
| 20260508053600 | 39 | 95 | 0.0 | 0.0 | 0.00 | 0.01 | 0.00 | 92 | 1008.8 |
| 20260508053105 | 39 | 95 | 0.0 | 0.0 | 0.00 | 0.01 | 0.00 | 92 | 1008.7 |
| 20260508052600 | 39 | 95 | 0.0 | 0.0 | 0.00 | 0.01 | 0.00 | 92 | 1008.9 |
| 20260508051555 | 39 | 95 | 0.0 | 0.0 | 0.00 | 0.01 | 0.00 | 92 | 1008.9 |
| 20260508051055 | 39 | 95 | 0.0 | 0.0 | 0.00 | 0.01 | 0.00 | 92 | 1008.7 |
| 20260508050555 | 39 | 95 | 0.0 | 0.0 | 0.00 | 0.01 | 0.00 | 92 | 1008.7 |
| 20260508050058 | 39 | 95 | 0.0 | 0.0 | 0.00 | 0.01 | 0.00 | 92 | 1008.7 |
| 20260508045554 | 39 | 95 | 0.0 | 0.0 | 0.00 | 0.01 | 0.00 | 91 | 1008.7 |
| 20260508045058 | 39 | 95 | 0.0 | 0.0 | 0.00 | 0.01 | 0.00 | 91 | 1008.6 |
| 20260508044554 | 39 | 95 | 0.0 | 0.0 | 0.00 | 0.01 | 0.00 | 91 | 1008.5 |
| 20260508044056 | 40 | 95 | 0.0 | 0.0 | 0.00 | 0.01 | 0.00 | 91 | 1008.5 |
| 20260508043554 | 40 | 95 | 0.0 | 0.0 | 0.00 | 0.01 | 0.00 | 91 | 1008.4 |
| 20260508043054 | 40 | 95 | 0.0 | 0.0 | 0.00 | 0.01 | 0.00 | 90 | 1008.4 |
| 20260508042555 | 40 | 95 | 0.0 | 0.0 | 0.00 | 0.01 | 0.00 | 90 | 1008.4 |
| 20260508041558 | 40 | 95 | 0.0 | 0.0 | 0.00 | 0.01 | 0.00 | 90 | 1008.5 |
| 20260508041054 | 40 | 95 | 0.0 | 0.0 | 0.00 | 0.01 | 0.00 | 90 | 1008.6 |
| 20260508040554 | 40 | 95 | 0.0 | 0.0 | 0.00 | 0.01 | 0.00 | 90 | 1008.6 |
| 20260508040104 | 40 | 95 | 0.0 | 0.0 | 0.00 | 0.01 | 0.00 | 90 | 1008.5 |
| 20260508035554 | 40 | 95 | 0.0 | 0.0 | 0.00 | 0.01 | 0.00 | 90 | 1008.4 |
| 20260508035057 | 40 | 95 | 0.0 | 0.0 | 0.00 | 0.01 | 0.00 | 90 | 1008.5 |
| 20260508034557 | 40 | 95 | 0.0 | 0.0 | 0.00 | 0.01 | 0.00 | 90 | 1008.5 |
| 20260508034053 | 40 | 95 | 0.0 | 0.0 | 0.00 | 0.01 | 0.00 | 90 | 1008.5 |
| 20260508033557 | 40 | 95 | 0.0 | 0.0 | 0.00 | 0.01 | 0.00 | 90 | 1008.5 |
| 20260508033101 | 40 | 95 | 0.0 | 0.0 | 0.00 | 0.01 | 0.00 | 89 | 1008.4 |
| 20260508032553 | 40 | 95 | 0.0 | 0.0 | 0.00 | 0.01 | 0.00 | 89 | 1008.5 |
| 20260508031552 | 40 | 95 | 0.0 | 0.0 | 0.00 | 0.01 | 0.00 | 88 | 1008.4 |
| 20260508031053 | 40 | 95 | 0.0 | 0.0 | 0.00 | 0.01 | 0.00 | 88 | 1008.3 |
| 20260508030552 | 40 | 95 | 0.0 | 0.0 | 0.00 | 0.01 | 0.00 | 87 | 1008.3 |
| 20260508030109 | 40 | 95 | 0.0 | 0.0 | 0.00 | 0.01 | 0.00 | 87 | 1008.5 |
| 20260508025552 | 40 | 95 | 0.0 | 0.0 | 0.00 | 0.01 | 0.00 | 86 | 1008.5 |
| 20260508025053 | 41 | 95 | 0.0 | 0.0 | 0.00 | 0.01 | 0.00 | 86 | 1008.5 |
| 20260508024601 | 41 | 95 | 0.0 | 0.0 | 0.00 | 0.01 | 0.00 | 86 | 1008.5 |